Weather in Spitsyno

Russia / Kurgan Oblast     56°12′42″N   64°39′29″E
temp.,
°C
wind,
m/s
gust,
m/s
humid.,
%
clouds,
%
prec.,
mm/h
press.,
hPa
HPBL,
m
8 march, mon
mon823:00−10n5995100 2.2 1003389
02:00−11nw4894100 0.4 1005254
05:00−18wnw359574 0.4 100887
08:00−20wsw359822 0.0 100986
11:00−15sw469233 0.0 1010264
14:00−11ssw5886100 0.0 1009510
17:00−10ssw61186100 0.0 1008795
20:00−9ssw61394100 0.3 1006640
9 march, tue
tue923:00−8ssw61491100 0.6 1006517
02:00−7sw6158772 0.0 1005482
05:00−7ssw6138970 0.0 1005363
08:00−6ssw61395100 0.5 1005699
11:00−4sw71393100 1.2 1004805
14:00−2sw81289100 0.5 10041135
17:00−4w6118588 2.0 1006840
20:00−9wsw349219 0.0 100940
10 march, wed
wed1023:00−11wsw239143 0.0 101228
02:00−13sw1292100 0.0 101120
05:00−13sse0192100 0.0 101120
08:00−13ese1293100 0.0 100821
11:00−8e2388100 0.0 1007291
14:00−5ene4591100 0.0 1004505
17:00−6ene5892100 0.1 1002506
20:00−7ene4995100 0.3 1001396
11 march, thu
thu1123:00−9ne61094100 1.1 1000388
02:00−12ne71294100 0.7 999422
05:00−15nne71394100 1.6 1001442
08:00−17nne71295100 0.7 1003463
11:00−17n61093100 1.1 1006486
14:00−15n6991100 0.2 1008580
17:00−15nnw4786100 0.3 1010637
20:00−21nw349573 0.0 101343
12 march, fri
fri1223:00−22w229366 0.0 101620
02:00−22sw3494100 0.0 101779
05:00−23wsw359793 0.0 101889
08:00−22wsw499887 0.0 1019188
11:00−14wsw589287 0.0 1020424
14:00−10wsw5889100 0.1 1021722
17:00−8wsw5888100 0.1 1021698
20:00−13sw489398 0.0 1022148